BREEZE-M DEB, 43401

Orbit data source: Space-Track

BREEZE-M DEB, 43401 is space debris in HEO originally from a launch on Thu, 17 May 2012 UTC launched from the Tyuratam Missile And Space Complex (TTMTR). Debris objects in space refer to the collection of defunct objects orbiting the Earth. Examples of debris include non-operational satellites, rocket bodies, and fragments generated from explosions, collisions, or faulty payload assembly.

Loading next visibility...
Identifier
43401, 2012-026N
Orbit
HEO
Last TLE update
3 days ago
Origin
Manufacturer
Khrunichev
Mission
Spacecraft
Bus & Motor
Unknown
Mass
Unknown
Launch date (UTC)
2012-05-17 (13 years ago)
Launch vehicle
Unknown
Launch site
Tyuratam Missile And Space Complex (TTMTR)
Object type
Payload
Rocket body
Debris
Shape & HBR
Unknown
Radar Cross Section
RCS unknown

Expand to show TLE details & history

TLE from 3 days ago
0 BREEZE-M DEB
1 43401U 12026N   25180.89855664 -.00000079  00000-0  00000-0 0  9997
2 43401   9.5066 169.8919 4101731 341.9134 164.6084  1.75797473 82655
Epoch: 2025-06-29T21:33Z
TLE epoch observation values (Epoch: 2025-06-29T21:33:55.293Z)
Latitude
4.02352°
Longitude
83.29399°
Altitude
34,298.596 km
Speed
2.42 km/s
True Right ascension
21h 39m 57s
True Declination
4° 01' 10"
Sunlit
Object was in daylight at epoch
Visualization orbit readout
Latitude
6.43873°
Longitude
65.48696°
Altitude
31,979.394 km
Speed
2.653 km/s
Apparent Right ascension
20h 49m 36s
Apparent Declination
0° 22' 30"
Sunlit
Object is in daylight
Visualization observer readout
Local Sidereal Time
17:49:28
Azimuth
122.369° SE
Elevation
33.109°
Doppler factor
1
Orbital elements
Apogee altitude
34,519.185 km
Perigee altitude
10,727.806 km
Semi-major axis
29,001.632 km
Eccentricity
0.41017
Inclination
9.5066°
RAAN
169.8919°
Arg. of periapsis
341.9134°
True anomaly
Unknown
Mean anomaly
164.6084°
Eccentric anomaly
Unknown
Mean motion
0.43945 °/min
Orbital period
819.21 mins
BSTAR
0
Loading maneuver chart data...
Loading SW <> Apogee altitude chart data...
Loading historical data...
Loading historical data...
Loading historical data...
Loading historical data...
Loading historical data...
Loading historical data...
Loading historical data...

BREEZE-M DEB Visibility forecast

Observer location: undefined°, undefined°

Span
Click to sort rows by Start time (UTC) header in descending order
Start Az.
Max El. time (UTC)
Max El. Az.
Max El.
End time (UTC)
End Az.
425 mins2025-07-03 06:03:51.521Z122.386° SE2025-07-03 08:29:51.521Z132.624° SE29.206°2025-07-03 13:08:51.521Z128.179° SE
43 mins2025-07-04 05:20:51.521Z249.476° W2025-07-04 06:03:51.521Z231.418° WSW29.577°2025-07-04 06:03:51.521Z231.418° WSW
|